Home > Weather > Salalah > Past weeks

Flag for Oman Past Weather in Salalah, Oman — Yesterday and Last 2 Weeks

Now
75 °F

Drizzle. Mostly cloudy.


Feels Like: 75 °F
Forecast: 77 / 81 °F
Wind: 10 mph from South

Location: Salalah Airport

Current Time: Jul 29, 2016 at 4:27:24 AM

Latest Report: Jul 29, 2016 at 3:50 AM


Visibility: 4 mi

Pressure: 29.68 "Hg

Humidity: 89%

Dew Point: 72 °F

Location of SalalahLocation

Past Weather in Salalah — Graph

°F

Salalah Temperature Yesterday

Maximum temperature yesterday: 79 °F (at 1:50 PM)
Minimum temperature yesterday: 75 °F (at 12:50 AM)
Average temperature yesterday: 76 °F

High & Low Weather Summary for the Past Weeks

 TemperatureHumidityPressure
High81 °F (Jul 14, 11:50 AM)100% (Jul 14, 3:50 AM)29.77 "Hg (Jul 14, 3:50 AM)
Low73 °F (Jul 20, 4:50 AM)84% (Jul 27, 10:50 AM)29.56 "Hg (Jul 14, 4:50 PM)
Average77 °F95%29.64 "Hg
* Reported Jul 14 2:50 AM — Jul 29 2:50 AM, Salalah, Weather by CustomWeather, © 2016

Note: Actual official high and low records may vary slightly from our data, if they occured in-between our weather recording intervals... More about our weather records

Advertising

Salalah Weather History for the Previous 24 Hours

Scroll right to see more
 ConditionsComfort  
Time TempWeatherWind HumidityBarometerVisibility
2:50 AM
Fri, Jul 29
75 °FPassing clouds.9 mph94%29.68 "Hg4 mi
1:50 AM75 °FPassing clouds.8 mph89%29.68 "Hg5 mi
12:50 AM75 °FPartly cloudy.7 mph94%29.68 "Hg4 mi
11:50 PM
Thu, Jul 28
75 °FPartly cloudy.7 mph94%29.68 "Hg4 mi
10:50 PM75 °FMostly cloudy.8 mph94%29.71 "Hg4 mi
9:50 PM75 °FPassing clouds.8 mph94%29.71 "Hg4 mi
8:50 PM75 °FPassing clouds.9 mph94%29.68 "Hg4 mi
7:50 PM77 °FMostly cloudy.9 mph89%29.65 "Hg4 mi
6:50 PM77 °FCloudy.10 mph89%29.65 "Hg4 mi
5:50 PM77 °FCloudy.9 mph89%29.65 "Hg4 mi
4:50 PM77 °FMostly cloudy.13 mph89%29.65 "Hg4 mi
3:50 PM79 °FCloudy.13 mph84%29.65 "Hg4 mi
2:50 PM79 °FCloudy.13 mph84%29.65 "Hg4 mi
1:50 PM79 °FCloudy.14 mph84%29.65 "Hg4 mi
12:50 PM77 °FCloudy.14 mph89%29.68 "Hg4 mi
11:50 AM77 °FCloudy.9 mph89%29.68 "Hg3 mi
10:50 AM77 °FDrizzle. Cloudy.7 mph89%29.71 "Hg2 mi
9:50 AM75 °FCloudy.6 mph94%29.71 "Hg2 mi
8:50 AM75 °FDrizzle. Fog.7 mph94%29.71 "Hg1 mi
7:50 AM75 °FDrizzle. Cloudy.6 mph94%29.68 "Hg1 mi
6:50 AM75 °FDrizzle. Fog.6 mph94%29.68 "Hg1 mi
5:50 AM75 °FDrizzle. Fog.6 mph94%29.65 "Hg2 mi
4:50 AM75 °FDrizzle. Fog.6 mph94%29.65 "Hg1 mi
Weather by CustomWeather, © 2016

See weather overviewHow to use our weather pages